Regional Weather Roundup
Issued by NWS Jackson, KY

Home | Current Version | Previous Version | Graphics & Text | Print | Product List | Glossary On
Versions: 1 2 3 4 5 6 7 8 9 10 11 12 13 14 15 16 17 18 19 20 21 22 23 24 25 26 27 28 29 30 31 32 33 34 35 36 37 38 39 40 41 42 43 44 45 46 47 48 49 50
000
ASUS43 KJKL 261405
RWRJKL

EAST KENTUCKY HOURLY WEATHER ROUNDUP
NATIONAL WEATHER SERVICE JACKSON KY
900 AM EST FRI DEC 26 2014

NOTE: "FAIR" INDICATES FEW OR NO CLOUDS BELOW 12,000 FEET WITH
NO SIGNIFICANT WEATHER AND/OR OBSTRUCTIONS TO VISIBILITY.

* THESE REPORTS ARE NOT UNDER NWS QUALITY CONTROL AND MAY NOT
  REPORT WEATHER SUCH AS PRECIPITATION AND FOG.

KYZ079-080-083-085-087-088-110-112-115-119-120-261500
...EASTERN KENTUCKY...

CITY           SKY/WX    TMP DP  RH WIND       PRES   REMARKS
JACKSON        SUNNY     32  29  88 S3        30.31R
LONDON         MOSUNNY   31  26  82 CALM      30.33R
SOMERSET*      SUNNY     30  30 100 CALM      30.34R
MONTICELLO*    SUNNY     29  27  92 CALM      30.35R
MIDDLESBORO*   MOSUNNY   27  26  96 CALM      30.35R
HARLAN APT*    CLOUDY    30  30 100 CALM      30.33R VSB 1/4
BLACK MTN*       N/A     41   5  22 W1          N/A
PIKEVILLE APT* SUNNY     32  30  93 S6        30.32R WCI  26
BIG SANDY*     MOSUNNY   33  31  96 CALM      30.32R
MOREHEAD APT*  MOSUNNY   32  30  93 SE3       30.31S
$$

KYZ035-036-041-042-044-050-067-078-099-261500
...CENTRAL KENTUCKY...

CITY           SKY/WX    TMP DP  RH WIND       PRES   REMARKS
MT STERLING*   MOSUNNY   32  32 100 SW7       30.30S WCI  26
FLEMING/MASON* SUNNY     34  31  89 S7        30.29S WCI  28
DANVILLE*      MOSUNNY   32  32 100 S5        30.30R WCI  27
RICHMOND*      PTCLDY    37  32  81 S9        30.30R WCI  31
LEXINGTON      CLEAR     34  31  88 S10       30.28R WCI  26
FRANKFORT      CLEAR     33  30  88 S8        30.26R WCI  26
$$

KYZ091>093-OHZ055-061-077-WVZ005-015-034-035-042-261500
...SOUTHERN OHIO/WEST VIRGINIA...

CITY           SKY/WX    TMP DP  RH WIND       PRES   REMARKS
COVINGTON      PTCLDY    35  29  78 S9        30.23S WCI  28
COLUMBUS       PTCLDY    33  29  85 SE7       30.24S WCI  27
DAYTON         PTCLDY    35  32  88 S9        30.21R WCI  28
WILMINGTON     CLEAR     33  30  88 S10       30.23R WCI  25
HUNTINGTON     MOSUNNY   29  28  96 CALM      30.31R
CHARLESTON     FOG       29  27  92 CALM      30.32R VSB 1/4
PINEVILLE*     MOSUNNY   29  29 100 MISG      30.37R
BECKLEY        SUNNY     31  26  82 CALM      30.29R
BLUEFIELD      MOSUNNY   41  18  39 W6        30.29R
$$

VAZ002-007-008-TNZ017-027-036-066-071-261500
...SOUTHWEST VIRGINIA/EAST TENNESSEE...

CITY           SKY/WX    TMP DP  RH WIND       PRES   REMARKS
WISE*          SUNNY     36  28  75 SW3       30.30R
JONESVILLE*    SUNNY     27  27 100 CALM      30.36R
ABINGDON*      MOSUNNY   33  31  92 CALM      30.31R
BRISTOL        MOSUNNY   28  28 100 CALM      30.33R
KNOXVILLE      MOSUNNY   30  28  92 CALM      30.34R
OAK RIDGE      FOG       31  30  96 CALM      30.36R VSB<1/4
CROSSVILLE     MOSUNNY   33  30  88 W5        30.31R WCI  29
NASHVILLE      MOCLDY    34  33  96 S8        30.31R WCI  27
$$

...KEY TO REMARKS...
VSB - VISIBILITY IN MILES
WCI - WIND CHILL INDEX
HX  - HEAT INDEX

$$


USA.gov is the U.S. government's official web portal to all federal, state and local government web resources and services.